New Philadelphia, OH

2:14 AM EDT on August 26, 2016 (GMT -0400)
Clever

Weather History for KPHD - May, 2013

Change the Weather History Date:

Thursday, May 30, 2013

  Actual Average Record
Temperature  
Mean Temperature 75 °F 64 °F  
Max Temperature 88 °F 76 °F 91 °F (1977)
Min Temperature 62 °F 52 °F 33 °F (1961)
Degree Days  
Heating Degree Days 0 3  
Month to date heating degree days 145 191  
Since 1 July heating degree days 5585 5606  
Cooling Degree Days 10 2  
Month to date cooling degree days 76 31  
Year to date cooling degree days 88 38  
Growing Degree Days 25 (Base 50)    
Moisture  
Dew Point 62 °F    
Average Humidity 67    
Maximum Humidity 93    
Minimum Humidity 40    
Precipitation  
Precipitation 0.00 in 0.16 in 0.72 in (1975)
Month to date precipitation 1.85 4.02  
Year to date precipitation 9.92 15.45  
Sea Level Pressure  
Sea Level Pressure 30.12 in    
Wind  
Wind Speed 5 mph (SSE)    
Max Wind Speed 14 mph    
Max Gust Speed 21 mph    
Visibility 10 miles    
Events      
T = Trace of Precipitation, MM = Missing Value Source: NWS Daily Summary

Daily Weather History Graph

Daily Weather History Graph

Search for Another Location

Airport or City:

Trip Planner

Search our weather history database for the weather conditions in past years. The results will help you decide how hot, cold, wet, or windy it might be!

Date:

Astronomy

May. 30, 2013 Rise Set
Actual Time 5:58 AM EDT 8:48 PM EDT
Civil Twilight 5:25 AM EDT 9:21 PM EDT
Nautical Twilight 4:45 AM EDT 10:01 PM EDT
Astronomical Twilight 3:58 AM EDT 10:48 PM EDT
Moon 12:48 AM EDT (5/30) 12:05 PM EDT (5/30)
Length of Visible Light 15h 55m
Length of Day
14h 50m
Waning Gibbous, 62% of the Moon is Illuminated
May 30
Waning Gibbous
May 31
Last Quarter
Jun 8
New
Jun 16
First Quarter
Jun 23
Full

Hourly Weather History & Observations

Time (EDT) Temp. Heat Index Dew Point Humidity Pressure Visibility Wind Dir Wind Speed Gust Speed Precip Events Conditions
12:53 AM 66.9 °F - 61.0 °F 81% 30.09 in 10.0 mi Calm Calm - N/A   Clear
1:53 AM 66.0 °F - 61.0 °F 84% 30.09 in 10.0 mi SE 3.5 mph - N/A   Clear
2:53 AM 64.9 °F - 60.1 °F 84% 30.10 in 10.0 mi Calm Calm - N/A   Clear
3:53 AM 64.0 °F - 60.1 °F 87% 30.12 in 10.0 mi Calm Calm - N/A   Clear
4:53 AM 63.0 °F - 60.1 °F 90% 30.13 in 8.0 mi ESE 3.5 mph - N/A   Clear
5:53 AM 62.1 °F - 59.0 °F 90% 30.14 in 9.0 mi ESE 4.6 mph - N/A   Clear
6:53 AM 64.0 °F - 60.1 °F 87% 30.14 in 7.0 mi SE 5.8 mph - N/A   Clear
7:53 AM 68.0 °F - 62.1 °F 81% 30.16 in 10.0 mi SE 5.8 mph - N/A   Clear
8:53 AM 73.0 °F - 63.0 °F 71% 30.18 in 10.0 mi ESE 3.5 mph - N/A   Clear
9:53 AM 78.1 °F - 62.1 °F 58% 30.18 in 10.0 mi Variable 5.8 mph - N/A   Clear
10:53 AM 80.1 °F 81.5 °F 63.0 °F 56% 30.18 in 10.0 mi SSW 5.8 mph - N/A   Clear
11:53 AM 82.0 °F 83.0 °F 62.1 °F 51% 30.17 in 10.0 mi WSW 5.8 mph - N/A   Clear
12:53 PM 82.9 °F 83.7 °F 62.1 °F 49% 30.16 in 10.0 mi Variable 5.8 mph - N/A   Clear
1:53 PM 84.9 °F 85.4 °F 62.1 °F 46% 30.14 in 10.0 mi SSW 10.4 mph 16.1 mph N/A   Partly Cloudy
2:53 PM 86.0 °F 86.3 °F 62.1 °F 44% 30.13 in 10.0 mi Variable 5.8 mph - N/A   Scattered Clouds
3:53 PM 88.0 °F 87.9 °F 61.0 °F 40% 30.12 in 10.0 mi South 8.1 mph - N/A   Mostly Cloudy
4:53 PM 88.0 °F 87.9 °F 61.0 °F 40% 30.10 in 10.0 mi SSE 10.4 mph 16.1 mph N/A   Scattered Clouds
5:53 PM 86.0 °F 86.1 °F 61.0 °F 43% 30.09 in 10.0 mi Variable 5.8 mph - N/A   Partly Cloudy
6:53 PM 84.9 °F 85.0 °F 61.0 °F 44% 30.07 in 10.0 mi South 8.1 mph - N/A   Clear
7:53 PM 82.9 °F 83.7 °F 62.1 °F 49% 30.07 in 10.0 mi South 5.8 mph - N/A   Clear
8:53 PM 78.1 °F - 62.1 °F 58% 30.07 in 10.0 mi SE 3.5 mph - N/A   Clear
9:53 PM 72.0 °F - 63.0 °F 73% 30.08 in 10.0 mi ESE 4.6 mph - N/A   Clear
10:53 PM 68.0 °F - 63.0 °F 84% 30.09 in 10.0 mi ESE 4.6 mph - N/A   Clear
11:53 PM 66.9 °F - 62.1 °F 84% 30.09 in 8.0 mi Calm Calm - N/A   Clear